Terminal Aerodrome Forecast
Issued by NWS

Home | Current Version | Previous Version | Text Only | Print | Product List | Glossary On
Versions: 1 2 3 4 5 6 7 8 9 10 11 12 13 14 15 16 17 18 19 20 21 22 23 24 25 26 27 28 29 30 31 32 33 34 35 36 37 38 39 40 41 42 43 44 45 46 47 48 49 50
000
FTAK31 PANC 220531
TAFASN
TAF
PASN 220531Z 2206/2306 33022G30KT P6SM -SHSNRA SCT020 BKN035
      TEMPO 2206/2210 BKN020
     FM221500 33015KT P6SM SCT025 BKN035
     FM230000 27008KT P6SM SCT030 BKN050=

USA.gov is the U.S. government's official web portal to all federal, state and local government web resources and services.